Location: Godzisko
(49.9648°N, 19.4576°E)
Time: 02:21:57
(UTC+00:00)

Meteor 1-29 - Pass Details

Date: 20 April 2021
Orbit: 436 x 457 km, 97.7° (Epoch: 14 May)

Event Time Altitude Azimuth Distance (km) Brightness Sun altitude
Rises 00:53:00 0° 13° (NNE) 2,432 7.8 -22.1°
Reaches altitude 10° 00:55:01 10° 13° (NNE) 1,558 6.6 -21.9°
Enters shadow 00:57:59 68° 2° (N) 476 3.1 -21.6°
